This demonstration page uses our WeatherBlox Daily Observations layout. Learn more.

Hourly Observations for October 29, 2019

Temp ( °F °C ) Dew Point ( °F °C ) Humidity (%) Winds ( mph kmh ) Pressure ( in mb ) Visibility ( mi km ) Precip ( " mm )
12:15 am 00:15 Clear 25 -4.1 24 -4.5 97 97 WSW 7 11 30.28 1025 10 16.0934 0 0
12:35 am 00:35 Clear 24 -4.6 23 -5.2 96 96 W 5 7 30.27 1025 10 16.0934 0 0
12:55 am 00:55 Clear 23 -5 22 -5.6 96 96 WSW 5 7 30.27 1025 10 16.0934 0 0
1:15 am 01:15 Clear 23 -4.8 22 -5.5 95 95 W 7 11 30.27 1025 10 16.0934 0 0
1:35 am 01:35 Clear 24 -4.6 22 -5.5 94 94 W 7 11 30.27 1025 10 16.0934 0 0
1:55 am 01:55 Clear 24 -4.6 22 -5.5 94 94 W 8 13 30.27 1025 10 16.0934 0 0
2:15 am 02:15 Clear 24 -4.6 22 -5.5 94 94 W 7 11 30.28 1025 10 16.0934 0 0
2:35 am 02:35 Clear 24 -4.4 22 -5.4 93 93 W 7 11 30.27 1025 10 16.0934 0 0
2:55 am 02:55 Clear 25 -4.1 23 -5.2 92 92 WSW 3 6 30.27 1025 10 16.0934 0 0
3:15 am 03:15 Clear 25 -3.7 23 -5 91 91 W 5 7 30.26 1025 10 16.0934 0 0
3:35 am 03:35 Clear 25 -3.7 23 -5 91 91 W 3 6 30.25 1024 10 16.0934 0 0
3:55 am 03:55 Mostly Cloudy 25 -3.8 23 -5 91 91 W 5 7 30.25 1024 10 16.0934 0 0
4:15 am 04:15 Cloudy 26 -3.5 24 -4.6 92 92 W 5 7 30.26 1025 10 16.0934 0 0
4:35 am 04:35 Cloudy 26 -3.5 23 -4.8 91 91 Calm 30.26 1025 10 16.0934 0 0
4:55 am 04:55 Cloudy 26 -3.5 24 -4.6 92 92 Calm 30.25 1024 10 16.0934 0 0
5:15 am 05:15 Cloudy 26 -3.6 24 -4.6 93 93 Calm 30.25 1024 10 16.0934 0 0
5:35 am 05:35 Cloudy 26 -3.6 24 -4.5 94 94 Calm 30.28 1025 10 16.0934 0 0
5:55 am 05:55 Cloudy 26 -3.1 25 -4 94 94 W 6 9 30.3 1026 10 16.0934 0 0
6:15 am 06:15 Cloudy 27 -2.7 25 -3.7 93 93 WSW 5 7 30.32 1027 10 16.0934 0 0
6:35 am 06:35 Cloudy 27 -2.6 25 -3.7 92 92 Calm 30.31 1026 10 16.0934 0 0
6:55 am 06:55 Cloudy 27 -2.6 26 -3.6 93 93 SW 5 7 30.3 1026 10 16.0934 0 0
7:15 am 07:15 Cloudy 27 -2.8 25 -3.7 94 94 Calm 30.28 1025 10 16.0934 0 0
7:35 am 07:35 Cloudy 27 -2.7 25 -3.7 93 93 Calm 30.29 1026 10 16.0934 0 0
7:55 am 07:55 Cloudy 26 -3.1 25 -4.1 93 93 Calm 30.3 1026 10 16.0934 0 0
8:15 am 08:15 Cloudy 26 -3.1 25 -3.8 95 95 Calm 30.3 1026 10 16.0934 0 0
8:35 am 08:35 Cloudy 27 -3 26 -3.6 96 96 N 5 7 30.29 1026 10 16.0934 0 0
8:55 am 08:55 Cloudy 28 -2.3 27 -3 95 95 N 5 7 30.3 1026 10 16.0934 0 0
9:15 am 09:15 Cloudy 28 -2.1 26 -3.4 91 91 N 10 17 30.32 1027 10 16.0934 0 0
9:35 am 09:35 Cloudy 28 -2.5 25 -4 90 90 N 10 17 30.32 1027 10 16.0934 0 0
9:55 am 09:55 Cloudy 28 -2.5 24 -4.2 88 88 N 8 13 30.33 1027 10 16.0934 0 0
10:15 am 10:15 Cloudy 28 -2.3 24 -4.4 86 86 NNE 12 19 30.33 1027 10 16.0934 0 0
10:35 am 10:35 Cloudy 28 -2.2 24 -4.7 83 83 N 9 15 30.35 1028 10 16.0934 0 0
10:55 am 10:55 Mostly Cloudy 28 -2.1 24 -4.4 84 84 N 9 15 30.36 1028 10 16.0934 0 0
11:15 am 11:15 Mostly Cloudy 28 -2 24 -4.2 85 85 N 14 22 30.36 1028 10 16.0934 0 0
11:35 am 11:35 Cloudy 29 -1.9 25 -4.1 85 85 NNE 12 19 30.36 1028 10 16.0934 0 0
11:55 am 11:55 Cloudy 29 -1.6 25 -4 84 84 N 15 24 30.36 1028 10 16.0934 0 0
12:15 pm 12:15 Mostly Cloudy 30 -1.3 26 -3.6 85 85 N 14 22 30.37 1028 10 16.0934 0 0
12:35 pm 12:35 Mostly Cloudy 30 -1 26 -3.4 84 84 NNE 15 24 30.37 1028 10 16.0934 0 0
12:55 pm 12:55 Cloudy 30 -1 26 -3.4 84 84 NNE 15 24 30.36 1028 10 16.0934 0 0
1:15 pm 13:15 Cloudy 30 -1 26 -3.5 83 83 NNE 16 26 30.36 1028 10 16.0934 0 0
1:35 pm 13:35 Cloudy 31 -0.8 26 -3.4 83 83 NNE 15 24 30.35 1028 10 16.0934 0 0
1:55 pm 13:55 Cloudy 31 -0.7 26 -3.5 82 82 NNE 17 28 30.35 1028 10 16.0934 0 0
2:15 pm 14:15 Cloudy 31 -0.5 26 -3.4 81 81 NNE 17 28 30.34 1027 10 16.0934 0 0
2:35 pm 14:35 Cloudy 31 -0.5 25 -3.8 79 79 NNE 16 26 30.34 1027 10 16.0934 0 0
2:55 pm 14:55 Cloudy 31 -0.5 26 -3.6 80 80 NNE 17 28 30.34 1027 10 16.0934 0 0
3:15 pm 15:15 Cloudy 31 -0.6 25 -3.9 79 79 NNE 17 28 30.34 1027 10 16.0934 0 0
3:35 pm 15:35 Cloudy 31 -0.6 25 -4 78 78 N 18 30 30.34 1027 10 16.0934 0 0
3:55 pm 15:55 Cloudy 31 -0.7 25 -3.7 80 80 N 15 24 30.35 1028 10 16.0934 0 0
4:15 pm 16:15 Cloudy 30 -1 25 -3.9 81 81 N 16 26 30.36 1028 10 16.0934 0 0
4:35 pm 16:35 Cloudy 30 -1.1 25 -3.9 82 82 NNE 16 26 30.37 1028 10 16.0934 0 0
4:55 pm 16:55 Cloudy 30 -1.3 25 -4 82 82 N 14 22 30.38 1029 10 16.0934 0 0
5:15 pm 17:15 Cloudy 29 -1.5 25 -4.1 83 83 NNE 15 24 30.38 1029 10 16.0934 0 0
5:35 pm 17:35 Cloudy 29 -1.7 25 -4.1 84 84 NNE 16 26 30.38 1029 10 16.0934 0 0
5:55 pm 17:55 Cloudy 28 -2 24 -4.2 85 85 NNE 15 24 30.39 1029 10 16.0934 0 0
6:15 pm 18:15 Cloudy 28 -2.1 24 -4.2 86 86 NNE 15 24 30.39 1029 10 16.0934 0 0
6:35 pm 18:35 Cloudy 28 -2.3 24 -4.2 87 87 NNE 15 24 30.39 1029 10 16.0934 0 0
6:55 pm 18:55 Cloudy 28 -2.5 24 -4.6 86 86 NNE 13 20 30.39 1029 10 16.0934 0 0
7:15 pm 19:15 Cloudy 27 -2.6 23 -5 84 84 N 15 24 30.4 1029 10 16.0934 0 0
7:35 pm 19:35 Cloudy 27 -2.8 23 -5 85 85 N 14 22 30.4 1030 10 16.0934 0 0
7:55 pm 19:55 Cloudy 27 -3 23 -5 86 86 N 10 17 30.42 1030 10 16.0934 0 0
8:15 pm 20:15 Cloudy 26 -3.2 23 -5 88 88 N 10 17 30.42 1030 10 16.0934 0 0
8:30 pm 20:30 Mostly Cloudy 26 -3.4 23 -5.1 88 88 N 10 17 30.43 1030 10 16.0934 0 0
8:55 pm 20:55 Partly Cloudy 26 -3.5 22 -5.4 87 87 N 10 17 30.43 1030 10 16.0934 0 0
9:15 pm 21:15 Partly Cloudy 26 -3.3 22 -5.4 86 86 N 9 15 30.44 1031 10 16.0934 0 0
9:35 pm 21:35 Cloudy 26 -3.2 22 -5.3 86 86 N 10 17 30.45 1031 10 16.0934 0 0
9:55 pm 21:55 Cloudy 26 -3.1 22 -5.7 82 82 N 10 17 30.46 1031 10 16.0934 0 0
10:15 pm 22:15 Cloudy 27 -3 21 -5.9 81 81 N 12 19 30.47 1032 10 16.0934 0 0
10:35 pm 22:35 Cloudy 27 -3 21 -6 80 80 N 10 17 30.47 1032 10 16.0934 0 0
10:55 pm 22:55 Cloudy 26 -3.3 21 -6 82 82 N 12 19 30.48 1032 10 16.0934 0 0
11:15 pm 23:15 Cloudy 26 -3.5 21 -6.3 81 81 N 13 20 30.48 1032 10 16.0934 0 0
11:35 pm 23:35 Cloudy 26 -3.5 20 -6.4 81 81 N 16 26 30.48 1032 10 16.0934 0 0
11:55 pm 23:55 Cloudy 25 -3.7 20 -6.4 82 82 N 14 22 30.48 1032 10 16.0934 0 0

Powered by AerisWeather